User: anonymous   Login
Location: Meriden
(44.0740°N, 93.3870°W)
Time: 22:00:19
(UTC-05:00)
Language:

AO-27 - Orbit

View from above orbital plane
View from above orbital plane
View from above satellite
View from above satellite

Ground track
Ground track

The orbit data is extracted from the following two-line orbital elements,

1 22825U 93061C   17293.50813846 -.00000002  00000-0  17029-4 0  9991
2 22825  98.8291 260.7291 0007926 332.7370  27.3394 14.30010174255319
Epoch (UTC): 20 October 2017 12:11:43
Eccentricity: 0.0007926
inclination: 98.8291°
perigee height: 786 km
apogee height: 797 km
right ascension of ascending node: 260.7291°
argument of perigee: 332.7370°
revolutions per day: 14.30010174
mean anomaly at epoch: 27.3394°
orbit number at epoch: 25531

The dashed part of the orbit path shows where the satellite is in the earth's shadow,  

DLR